Regional Weather Roundup
Issued by NWS

Home | Current Version | Previous Version | Text Only | Print | Product List | Glossary Off
Versions: 1 2 3 4 5 6 7 8 9 10 11 12 13 14 15 16 17 18 19 20 21 22 23 24 25 26 27

000
ASUS45 KSLC 292110
RWRUT

UTAH REGIONAL WEATHER ROUNDUP
NATIONAL WEATHER SERVICE SALT LAKE CITY UT
300 PM MDT MON AUG 29 2016

UTZ001>011-023>025-292200-

NORTHERN UTAH

CITY           SKY/WX    TMP DP  RH WIND       PRES   REMARKS
BRIGHAM CITY     N/A     91  25   9 NW3       30.17F
HILL AFB       SUNNY     87  37  16 NW12      30.20F
LOGAN          SUNNY     88  34  14 CALM      30.18F
OGDEN          SUNNY     90  36  14 NW9       30.18F
PROVO AIRPORT  MOSUNNY  N/A N/A N/A VRB5      30.20F
SALT LAKE CITY MOSUNNY   94  31  10 NW14      30.15F
VERNAL         SUNNY     87  34  15 S12       30.22F
WENDOVER       SUNNY     90  34  13 SE10      30.19F
HEBER CITY     SUNNY     90  27  10 SW3       30.22F
WEST JORDAN    SUNNY     89  36  15 NW7       30.19F

$$

UTZ012>022-026-027-292200-

SOUTHERN/CENTRAL UTAH

CITY           SKY/WX    TMP DP  RH WIND       PRES   REMARKS
BLANDING       SUNNY     80  40  24 SW6       30.33F
BRYCE CANYON   PTSUNNY   78  30  17 E10       30.39F
CEDAR CITY     SUNNY     89  32  13 N12       30.23F
DELTA          SUNNY     90  28  11 W6        30.18F
MILFORD        NOT AVBL
MOAB/CYNLANDS  SUNNY     88  40  18 VRB5      30.14F
PRICE          MOSUNNY   87  30  13 S6        30.24F
ST GEORGE      CLEAR     95  45  17 SW3       30.06F HX  91

$$

REGIONAL REPORTS     COLORADO/ARIZONA

CITY           SKY/WX    TMP DP  RH WIND       PRES   REMARKS
CRAIG, CO      CLOUDY    81  29  15 E8        30.30F
GRAND JUNCTION MOSUNNY   82  42  24 SE12G17   30.19F
RIFLE          CLOUDY    77  41  27 CALM      30.27F
MONTROSE       SUNNY     77  41  27 N9        30.28F
CORTEZ         PTSUNNY   79  44  28 VRB5      30.27F
PAGE, AZ       SUNNY     89  40  17 NE10      30.16F
GRAND CANYON   SUNNY     79  44  28 E9        30.34F
KINGMAN        SUNNY     95  42  16 VRB6G17   30.07F HX  91
FLAGSTAFF      SUNNY     73  41  31 NE13      30.33F

$$

REGIONAL REPORTS    NEVADA/IDAHO/WYOMING

CITY           SKY/WX    TMP DP  RH WIND       PRES   REMARKS
LAS VEGAS, NV  MOSUNNY  101  37  11 VRB3      29.96F HX  95
ELY            SUNNY     85  21   9 VRB3      30.29F
ELKO           MOSUNNY   92  19   7 SW8       30.20F
POCATELLO, ID  SUNNY     91  32  12 N9        30.20F
BURLEY         MOSUNNY   91  37  15 NE7       30.13F
EVANSTON, WY   SUNNY     81  24  12 VRB7      30.37F
ROCK SPRINGS   MOSUNNY   83  22  10 MISG      30.35F

$$




USA.gov is the U.S. government's official web portal to all federal, state and local government web resources and services.